SYRACUSE 4B

Last updated on Wed Nov 05 2025 00:02:51 GMT+0000 (Coordinated Universal Time)

1 57214U 23093B 25308.17775001 -.00000041 00000+0 00000+0 0 9996 2 57214 0.0188 270.8701 0000251 10.0496 180.2198 1.00270350 4710
UTC large
Height (km)
Speed (km/s)
/
Latitude / Longitude
Inclination (degrees)
Orbital Period (minutes)
Azimuth
Elevation
Range (km)
Doppler Factor

Next 0 passes for location: London (51.5072 / 0.1276)

Sorry there are no passes over London.